| time (UTC) | temp F | wind direction | speed MPH | gust MPH | rain 1hr in | rain 24hr in | rain mn in | humidity % | barometer mb |
| 20260508055937 | 54 | 256 | 14.0 | 29.0 | 0.00 | 0.00 | 0.00 | 84 | 1017.9 |
| 20260508055419 | 54 | 286 | 8.0 | 29.0 | 0.00 | 0.00 | 0.00 | 85 | 1017.9 |
| 20260508054926 | 54 | 304 | 12.0 | 26.0 | 0.00 | 0.00 | 0.00 | 85 | 1017.8 |
| 20260508054433 | 54 | 230 | 11.0 | 23.0 | 0.00 | 0.00 | 0.00 | 85 | 1017.9 |
| 20260508053921 | 54 | 305 | 12.0 | 28.0 | 0.00 | 0.00 | 0.00 | 85 | 1017.8 |
| 20260508053430 | 54 | 280 | 11.0 | 28.0 | 0.00 | 0.00 | 0.00 | 85 | 1017.9 |
| 20260508052935 | 54 | 308 | 9.0 | 16.0 | 0.00 | 0.00 | 0.00 | 85 | 1017.9 |
| 20260508052424 | 54 | 287 | 9.0 | 19.0 | 0.00 | 0.00 | 0.00 | 85 | 1017.9 |
| 20260508051931 | 54 | 259 | 9.0 | 19.0 | 0.00 | 0.00 | 0.00 | 85 | 1017.9 |
| 20260508051435 | 54 | 289 | 9.0 | 21.0 | 0.00 | 0.00 | 0.00 | 85 | 1018.0 |
| 20260508050923 | 54 | 274 | 13.0 | 25.0 | 0.00 | 0.00 | 0.00 | 85 | 1017.9 |
| 20260508050431 | 54 | 280 | 14.0 | 25.0 | 0.00 | 0.00 | 0.00 | 85 | 1017.9 |
| 20260508045936 | 54 | 242 | 11.0 | 21.0 | 0.00 | 0.00 | 0.00 | 86 | 1018.0 |
| 20260508045444 | 54 | 280 | 9.0 | 23.0 | 0.00 | 0.00 | 0.00 | 86 | 1017.9 |
| 20260508044931 | 54 | 268 | 12.0 | 23.0 | 0.00 | 0.00 | 0.00 | 86 | 1017.9 |
| 20260508044420 | 54 | 302 | 9.0 | 21.0 | 0.00 | 0.00 | 0.00 | 86 | 1017.9 |
| 20260508043922 | 54 | 287 | 12.0 | 20.0 | 0.00 | 0.00 | 0.00 | 86 | 1017.8 |
| 20260508043431 | 54 | 246 | 10.0 | 20.0 | 0.00 | 0.00 | 0.00 | 86 | 1017.8 |
| 20260508042938 | 54 | 259 | 8.0 | 17.0 | 0.00 | 0.00 | 0.00 | 86 | 1017.7 |
| 20260508042453 | 54 | 261 | 9.0 | 17.0 | 0.00 | 0.00 | 0.00 | 86 | 1017.7 |
| 20260508041921 | 54 | 251 | 8.0 | 17.0 | 0.00 | 0.00 | 0.00 | 86 | 1017.6 |
| 20260508041429 | 54 | 270 | 8.0 | 19.0 | 0.00 | 0.00 | 0.00 | 86 | 1017.6 |
| 20260508040937 | 54 | 251 | 10.0 | 19.0 | 0.00 | 0.00 | 0.00 | 86 | 1017.7 |
| 20260508040426 | 54 | 268 | 8.0 | 18.0 | 0.00 | 0.00 | 0.00 | 86 | 1017.6 |
| 20260508035929 | 54 | 276 | 8.0 | 18.0 | 0.00 | 0.00 | 0.00 | 86 | 1017.6 |
| 20260508035437 | 54 | 215 | 5.0 | 16.0 | 0.00 | 0.00 | 0.00 | 86 | 1017.5 |
| 20260508034923 | 54 | 322 | 5.0 | 17.0 | 0.00 | 0.00 | 0.00 | 86 | 1017.3 |
| 20260508034433 | 54 | 354 | 10.0 | 18.0 | 0.00 | 0.00 | 0.00 | 86 | 1017.3 |
| 20260508033920 | 54 | 253 | 7.0 | 19.0 | 0.00 | 0.00 | 0.00 | 86 | 1017.2 |
| 20260508033428 | 54 | 263 | 8.0 | 19.0 | 0.00 | 0.00 | 0.00 | 86 | 1017.2 |
| 20260508032934 | 54 | 244 | 8.0 | 15.0 | 0.00 | 0.00 | 0.00 | 86 | 1017.2 |
| 20260508032420 | 54 | 244 | 6.0 | 13.0 | 0.00 | 0.00 | 0.00 | 86 | 1017.2 |
| 20260508031921 | 54 | 285 | 6.0 | 17.0 | 0.00 | 0.00 | 0.00 | 86 | 1017.0 |
| 20260508031425 | 54 | 227 | 7.0 | 17.0 | 0.00 | 0.00 | 0.00 | 86 | 1017.0 |
| 20260508030932 | 54 | 258 | 6.0 | 16.0 | 0.00 | 0.00 | 0.00 | 86 | 1016.9 |
| 20260508030440 | 54 | 264 | 11.0 | 16.0 | 0.00 | 0.00 | 0.00 | 86 | 1016.9 |
| 20260508025927 | 54 | 247 | 7.0 | 19.0 | 0.00 | 0.00 | 0.00 | 86 | 1016.7 |
| 20260508025436 | 54 | 229 | 10.0 | 19.0 | 0.00 | 0.00 | 0.00 | 86 | 1016.7 |
| 20260508024923 | 54 | 232 | 9.0 | 16.0 | 0.00 | 0.00 | 0.00 | 85 | 1016.6 |
| 20260508024425 | 54 | 223 | 7.0 | 22.0 | 0.00 | 0.00 | 0.00 | 85 | 1016.7 |
| 20260508023933 | 54 | 306 | 11.0 | 22.0 | 0.00 | 0.00 | 0.00 | 85 | 1016.7 |
| 20260508023421 | 55 | 304 | 11.0 | 22.0 | 0.00 | 0.00 | 0.00 | 85 | 1016.7 |
| 20260508022958 | 55 | 220 | 9.0 | 23.0 | 0.00 | 0.00 | 0.00 | 85 | 1016.7 |
| 20260508022455 | 55 | 247 | 8.0 | 23.0 | 0.00 | 0.00 | 0.00 | 85 | 1016.7 |
| 20260508021920 | 55 | 268 | 11.0 | 25.0 | 0.00 | 0.00 | 0.00 | 85 | 1016.8 |
| 20260508021424 | 55 | 268 | 12.0 | 25.0 | 0.00 | 0.00 | 0.00 | 85 | 1016.8 |
| 20260508020946 | 55 | 244 | 10.0 | 22.0 | 0.00 | 0.00 | 0.00 | 84 | 1016.8 |
| 20260508020430 | 55 | 223 | 12.0 | 29.0 | 0.00 | 0.00 | 0.00 | 84 | 1016.8 |
| 20260508015938 | 55 | 294 | 13.0 | 29.0 | 0.00 | 0.00 | 0.00 | 84 | 1016.8 |
| 20260508015456 | 55 | 272 | 9.0 | 22.0 | 0.00 | 0.00 | 0.00 | 83 | 1016.7 |
| 20260508014923 | 55 | 258 | 11.0 | 28.0 | 0.00 | 0.00 | 0.00 | 83 | 1016.7 |
| 20260508014428 | 56 | 287 | 15.0 | 28.0 | 0.00 | 0.00 | 0.00 | 82 | 1016.7 |
| 20260508013930 | 56 | 323 | 13.0 | 24.0 | 0.00 | 0.00 | 0.00 | 82 | 1016.7 |
| 20260508013419 | 56 | 261 | 11.0 | 24.0 | 0.00 | 0.00 | 0.00 | 82 | 1016.7 |
| 20260508012924 | 57 | 296 | 10.0 | 24.0 | 0.00 | 0.00 | 0.00 | 81 | 1016.7 |
| 20260508012431 | 57 | 261 | 14.0 | 24.0 | 0.00 | 0.00 | 0.00 | 81 | 1016.7 |
| 20260508011939 | 57 | 270 | 10.0 | 21.0 | 0.00 | 0.00 | 0.00 | 81 | 1016.8 |
| 20260508011456 | 58 | 233 | 11.0 | 25.0 | 0.00 | 0.00 | 0.00 | 81 | 1016.8 |
| 20260508010922 | 57 | 294 | 10.0 | 25.0 | 0.00 | 0.00 | 0.00 | 81 | 1016.8 |
| 20260508010428 | 57 | 264 | 13.0 | 31.0 | 0.00 | 0.00 | 0.00 | 81 | 1016.8 |
| 20260508005929 | 57 | 280 | 14.0 | 31.0 | 0.00 | 0.00 | 0.00 | 82 | 1016.8 |
| 20260508005436 | 57 | 266 | 18.0 | 29.0 | 0.00 | 0.00 | 0.00 | 81 | 1016.8 |
| 20260508004925 | 58 | 249 | 15.0 | 25.0 | 0.00 | 0.00 | 0.00 | 80 | 1016.9 |
| 20260508004433 | 58 | 310 | 12.0 | 28.0 | 0.00 | 0.00 | 0.00 | 80 | 1016.9 |
| 20260508003941 | 57 | 275 | 13.0 | 32.0 | 0.00 | 0.00 | 0.00 | 80 | 1016.9 |
| 20260508003458 | 57 | 266 | 18.0 | 32.0 | 0.00 | 0.00 | 0.00 | 80 | 1017.0 |
| 20260508002946 | 58 | 258 | 11.0 | 28.0 | 0.00 | 0.00 | 0.00 | 80 | 1017.0 |
| 20260508002430 | 58 | 268 | 19.0 | 28.0 | 0.00 | 0.00 | 0.00 | 79 | 1017.0 |
| 20260508001935 | 58 | 287 | 10.0 | 24.0 | 0.00 | 0.00 | 0.00 | 79 | 1017.1 |
| 20260508001422 | 58 | 278 | 11.0 | 24.0 | 0.00 | 0.00 | 0.00 | 79 | 1017.0 |
| 20260508000931 | 58 | 290 | 14.0 | 24.0 | 0.00 | 0.00 | 0.00 | 80 | 1017.1 |
| 20260508000437 | 58 | 251 | 14.0 | 24.0 | 0.00 | 0.00 | 0.00 | 79 | 1017.0 |
| 20260507235921 | 58 | 276 | 11.0 | 20.0 | 0.00 | 0.00 | 0.00 | 79 | 1017.0 |
| 20260507235428 | 58 | 290 | 10.0 | 27.0 | 0.00 | 0.00 | 0.00 | 79 | 1017.2 |
| 20260507234931 | 58 | 280 | 15.0 | 27.0 | 0.00 | 0.00 | 0.00 | 78 | 1017.2 |
| 20260507234420 | 59 | 349 | 11.0 | 20.0 | 0.00 | 0.00 | 0.00 | 78 | 1017.1 |
| 20260507233949 | 59 | 224 | 8.0 | 20.0 | 0.00 | 0.00 | 0.00 | 79 | 1017.2 |
| 20260507233427 | 58 | 256 | 12.0 | 20.0 | 0.00 | 0.00 | 0.00 | 79 | 1017.1 |
| 20260507232934 | 58 | 301 | 9.0 | 23.0 | 0.00 | 0.00 | 0.00 | 79 | 1017.2 |
| 20260507232422 | 58 | 264 | 9.0 | 27.0 | 0.00 | 0.00 | 0.00 | 79 | 1017.2 |
| 20260507231929 | 58 | 251 | 16.0 | 27.0 | 0.00 | 0.00 | 0.00 | 79 | 1017.3 |
| 20260507231437 | 58 | 273 | 13.0 | 23.0 | 0.00 | 0.00 | 0.00 | 79 | 1017.4 |
| 20260507230941 | 58 | 283 | 14.0 | 25.0 | 0.00 | 0.00 | 0.00 | 79 | 1017.4 |
| 20260507230428 | 58 | 273 | 14.0 | 26.0 | 0.00 | 0.00 | 0.00 | 78 | 1017.5 |
| 20260507225935 | 58 | 283 | 16.0 | 28.0 | 0.00 | 0.00 | 0.00 | 78 | 1017.4 |
| 20260507225423 | 59 | 250 | 17.0 | 28.0 | 0.00 | 0.00 | 0.00 | 77 | 1017.5 |
| 20260507224929 | 60 | 311 | 11.0 | 26.0 | 0.00 | 0.00 | 0.00 | 77 | 1017.6 |
| 20260507224436 | 60 | 261 | 11.0 | 23.0 | 0.00 | 0.00 | 0.00 | 77 | 1017.5 |
| 20260507223924 | 60 | 275 | 10.0 | 20.0 | 0.00 | 0.00 | 0.00 | 78 | 1017.5 |
| 20260507223427 | 60 | 244 | 12.0 | 19.0 | 0.00 | 0.00 | 0.00 | 77 | 1017.6 |
| 20260507222933 | 60 | 256 | 9.0 | 21.0 | 0.00 | 0.00 | 0.00 | 78 | 1017.5 |
| 20260507222438 | 60 | 289 | 12.0 | 21.0 | 0.00 | 0.00 | 0.00 | 78 | 1017.7 |
| 20260507221954 | 59 | 287 | 15.0 | 21.0 | 0.00 | 0.00 | 0.00 | 78 | 1017.7 |
| 20260507221442 | 59 | 259 | 14.0 | 24.0 | 0.00 | 0.00 | 0.00 | 79 | 1017.8 |
| 20260507220927 | 59 | 287 | 16.0 | 24.0 | 0.00 | 0.00 | 0.00 | 78 | 1017.9 |
| 20260507220435 | 60 | 299 | 11.0 | 22.0 | 0.00 | 0.00 | 0.00 | 78 | 1017.9 |
| 20260507215937 | 60 | 230 | 14.0 | 21.0 | 0.00 | 0.00 | 0.00 | 76 | 1018.1 |
| 20260507215444 | 61 | 282 | 10.0 | 17.0 | 0.00 | 0.00 | 0.00 | 77 | 1018.2 |
| 20260507214932 | 61 | 234 | 10.0 | 21.0 | 0.00 | 0.00 | 0.00 | 76 | 1018.2 |
| 20260507214419 | 61 | 301 | 8.0 | 18.0 | 0.00 | 0.00 | 0.00 | 77 | 1018.1 |
| 20260507213927 | 61 | 254 | 9.0 | 18.0 | 0.00 | 0.00 | 0.00 | 77 | 1018.3 |
| 20260507213435 | 61 | 276 | 9.0 | 17.0 | 0.00 | 0.00 | 0.00 | 77 | 1018.3 |
| 20260507212922 | 60 | 270 | 9.0 | 17.0 | 0.00 | 0.00 | 0.00 | 78 | 1018.4 |
| 20260507212424 | 60 | 266 | 10.0 | 18.0 | 0.00 | 0.00 | 0.00 | 78 | 1018.5 |
| 20260507211930 | 60 | 254 | 10.0 | 20.0 | 0.00 | 0.00 | 0.00 | 78 | 1018.5 |
| 20260507211438 | 59 | 273 | 10.0 | 20.0 | 0.00 | 0.00 | 0.00 | 78 | 1018.6 |
| 20260507210924 | 60 | 280 | 11.0 | 19.0 | 0.00 | 0.00 | 0.00 | 77 | 1018.6 |
| 20260507210451 | 60 | 261 | 9.0 | 16.0 | 0.00 | 0.00 | 0.00 | 78 | 1018.5 |
| 20260507205935 | 60 | 226 | 7.0 | 17.0 | 0.00 | 0.00 | 0.00 | 78 | 1018.5 |
| 20260507205423 | 60 | 307 | 11.0 | 21.0 | 0.00 | 0.00 | 0.00 | 78 | 1018.6 |
| 20260507204927 | 60 | 206 | 10.0 | 17.0 | 0.00 | 0.00 | 0.00 | 77 | 1018.6 |
| 20260507204436 | 60 | 247 | 7.0 | 19.0 | 0.00 | 0.00 | 0.00 | 78 | 1018.7 |
| 20260507203923 | 60 | 325 | 9.0 | 19.0 | 0.00 | 0.00 | 0.00 | 78 | 1018.6 |
| 20260507203429 | 60 | 275 | 12.0 | 19.0 | 0.00 | 0.00 | 0.00 | 77 | 1018.7 |
| 20260507202938 | 60 | 247 | 8.0 | 18.0 | 0.00 | 0.00 | 0.00 | 77 | 1018.8 |
| 20260507202425 | 60 | 287 | 9.0 | 17.0 | 0.00 | 0.00 | 0.00 | 77 | 1018.8 |
| 20260507202000 | 60 | 337 | 8.0 | 16.0 | 0.00 | 0.00 | 0.00 | 77 | 1018.8 |
| 20260507201424 | 60 | 277 | 8.0 | 14.0 | 0.00 | 0.00 | 0.00 | 77 | 1018.8 |
| 20260507200932 | 60 | 276 | 5.0 | 14.0 | 0.00 | 0.00 | 0.00 | 78 | 1018.9 |
| 20260507200420 | 60 | 221 | 6.0 | 16.0 | 0.00 | 0.00 | 0.00 | 78 | 1019.0 |
| 20260507195925 | 60 | 274 | 7.0 | 13.0 | 0.00 | 0.00 | 0.00 | 78 | 1019.1 |
| 20260507195434 | 60 | 294 | 6.0 | 18.0 | 0.00 | 0.00 | 0.00 | 79 | 1019.1 |
| 20260507194923 | 59 | 273 | 7.0 | 18.0 | 0.00 | 0.00 | 0.00 | 79 | 1019.2 |
| 20260507194430 | 59 | 273 | 7.0 | 14.0 | 0.00 | 0.00 | 0.00 | 79 | 1019.2 |
| 20260507193938 | 59 | 278 | 5.0 | 14.0 | 0.00 | 0.00 | 0.00 | 79 | 1019.2 |
| 20260507193422 | 59 | 300 | 8.0 | 14.0 | 0.00 | 0.00 | 0.00 | 79 | 1019.3 |
| 20260507192929 | 59 | 244 | 6.0 | 12.0 | 0.00 | 0.00 | 0.00 | 80 | 1019.2 |
| 20260507192436 | 58 | 243 | 7.0 | 14.0 | 0.00 | 0.00 | 0.00 | 80 | 1019.2 |
| 20260507191923 | 58 | 324 | 10.0 | 14.0 | 0.00 | 0.00 | 0.00 | 81 | 1019.3 |
| 20260507191500 | 58 | 292 | 6.0 | 12.0 | 0.00 | 0.00 | 0.00 | 81 | 1019.4 |
| 20260507190947 | 57 | 277 | 8.0 | 14.0 | 0.00 | 0.00 | 0.00 | 81 | 1019.3 |
| 20260507190436 | 57 | 304 | 6.0 | 13.0 | 0.00 | 0.00 | 0.00 | 81 | 1019.4 |
| 20260507185929 | 58 | 329 | 8.0 | 13.0 | 0.00 | 0.00 | 0.00 | 80 | 1019.4 |
| 20260507185437 | 58 | 318 | 7.0 | 12.0 | 0.00 | 0.00 | 0.00 | 80 | 1019.4 |
| 20260507184952 | 57 | 182 | 7.0 | 12.0 | 0.00 | 0.00 | 0.00 | 81 | 1019.4 |
| 20260507184459 | 57 | 270 | 8.0 | 16.0 | 0.00 | 0.00 | 0.00 | 81 | 1019.5 |
| 20260507183925 | 57 | 264 | 10.0 | 16.0 | 0.00 | 0.00 | 0.00 | 81 | 1019.6 |
| 20260507183437 | 57 | 198 | 6.0 | 10.0 | 0.00 | 0.00 | 0.00 | 81 | 1019.6 |
| 20260507182928 | 56 | 314 | 5.0 | 12.0 | 0.00 | 0.00 | 0.00 | 81 | 1019.8 |
| 20260507182429 | 57 | 271 | 8.0 | 12.0 | 0.00 | 0.00 | 0.00 | 81 | 1019.9 |
| 20260507181937 | 57 | 303 | 7.0 | 12.0 | 0.00 | 0.00 | 0.00 | 81 | 1019.8 |
| 20260507181437 | 56 | 235 | 4.0 | 15.0 | 0.00 | 0.00 | 0.00 | 82 | 1019.8 |
| 20260507180931 | 56 | 270 | 7.0 | 11.0 | 0.00 | 0.00 | 0.00 | 82 | 1019.8 |
| 20260507180419 | 56 | 291 | 4.0 | 10.0 | 0.00 | 0.00 | 0.00 | 82 | 1019.8 |
| 20260507175927 | 56 | 184 | 5.0 | 10.0 | 0.00 | 0.00 | 0.00 | 82 | 1019.8 |
| 20260507175435 | 56 | 273 | 5.0 | 10.0 | 0.00 | 0.00 | 0.00 | 82 | 1019.8 |
| 20260507174922 | 56 | 303 | 8.0 | 12.0 | 0.00 | 0.00 | 0.00 | 82 | 1019.7 |
| 20260507174429 | 56 | 313 | 8.0 | 13.0 | 0.00 | 0.00 | 0.00 | 82 | 1019.7 |
| 20260507173934 | 56 | 263 | 4.0 | 13.0 | 0.00 | 0.00 | 0.00 | 82 | 1019.7 |
| 20260507173435 | 56 | 261 | 3.0 | 11.0 | 0.00 | 0.00 | 0.00 | 82 | 1019.7 |
| 20260507172919 | 56 | 276 | 4.0 | 10.0 | 0.00 | 0.00 | 0.00 | 82 | 1019.7 |
| 20260507172424 | 56 | 251 | 7.0 | 10.0 | 0.00 | 0.00 | 0.00 | 82 | 1019.7 |
| 20260507171933 | 56 | 205 | 3.0 | 9.0 | 0.00 | 0.00 | 0.00 | 83 | 1019.7 |
| 20260507171418 | 55 | 220 | 6.0 | 11.0 | 0.00 | 0.00 | 0.00 | 83 | 1019.7 |
| 20260507170925 | 55 | 205 | 4.0 | 10.0 | 0.00 | 0.00 | 0.00 | 83 | 1019.6 |
| 20260507170500 | 55 | 231 | 6.0 | 10.0 | 0.00 | 0.00 | 0.00 | 83 | 1019.6 |
| 20260507165939 | 55 | 235 | 4.0 | 9.0 | 0.00 | 0.00 | 0.00 | 83 | 1019.7 |
| 20260507165456 | 55 | 270 | 5.0 | 7.0 | 0.00 | 0.00 | 0.00 | 83 | 1019.6 |
| 20260507164923 | 55 | 34 | 2.0 | 8.0 | 0.00 | 0.00 | 0.00 | 84 | 1019.6 |
| 20260507164429 | 55 | 232 | 3.0 | 8.0 | 0.00 | 0.00 | 0.00 | 84 | 1019.6 |
| 20260507164004 | 55 | 268 | 4.0 | 7.0 | 0.00 | 0.00 | 0.00 | 84 | 1019.6 |
| 20260507163457 | 55 | 277 | 3.0 | 10.0 | 0.00 | 0.00 | 0.00 | 84 | 1019.6 |
| 20260507162941 | 54 | 252 | 4.0 | 10.0 | 0.00 | 0.00 | 0.00 | 85 | 1019.5 |
| 20260507162451 | 54 | 292 | 3.0 | 8.0 | 0.00 | 0.00 | 0.00 | 85 | 1019.5 |
| 20260507161936 | 54 | 320 | 3.0 | 10.0 | 0.00 | 0.00 | 0.00 | 85 | 1019.6 |
| 20260507161423 | 54 | 323 | 6.0 | 10.0 | 0.00 | 0.00 | 0.00 | 84 | 1019.6 |
| 20260507160950 | 54 | 337 | 6.0 | 11.0 | 0.00 | 0.00 | 0.00 | 84 | 1019.6 |
| 20260507160436 | 54 | 268 | 5.0 | 11.0 | 0.00 | 0.00 | 0.00 | 85 | 1019.5 |
| 20260507155921 | 54 | 302 | 4.0 | 8.0 | 0.00 | 0.00 | 0.00 | 85 | 1019.5 |
| 20260507155428 | 54 | 256 | 3.0 | 8.0 | 0.00 | 0.00 | 0.00 | 85 | 1019.5 |
| 20260507154931 | 54 | 196 | 4.0 | 9.0 | 0.00 | 0.00 | 0.00 | 85 | 1019.4 |
| 20260507154436 | 54 | 233 | 4.0 | 9.0 | 0.00 | 0.00 | 0.00 | 85 | 1019.5 |
| 20260507153923 | 54 | 360 | 3.0 | 7.0 | 0.00 | 0.00 | 0.00 | 86 | 1019.5 |
| 20260507153500 | 54 | 201 | 2.0 | 6.0 | 0.00 | 0.00 | 0.00 | 86 | 1019.5 |
| 20260507152955 | 54 | 268 | 2.0 | 6.0 | 0.00 | 0.00 | 0.00 | 86 | 1019.6 |
| 20260507152421 | 54 | 261 | 3.0 | 7.0 | 0.00 | 0.00 | 0.00 | 86 | 1019.5 |
| 20260507151931 | 54 | 254 | 4.0 | 6.0 | 0.00 | 0.00 | 0.00 | 86 | 1019.5 |
| 20260507151432 | 53 | 14 | 2.0 | 9.0 | 0.00 | 0.00 | 0.00 | 86 | 1019.5 |
| 20260507150936 | 53 | 265 | 4.0 | 9.0 | 0.00 | 0.00 | 0.00 | 86 | 1019.4 |
| 20260507150423 | 53 | 263 | 5.0 | 10.0 | 0.00 | 0.00 | 0.00 | 86 | 1019.5 |
| 20260507145929 | 53 | 263 | 4.0 | 7.0 | 0.00 | 0.00 | 0.00 | 86 | 1019.5 |
| 20260507145435 | 53 | 151 | 2.0 | 6.0 | 0.00 | 0.00 | 0.00 | 86 | 1019.5 |
| 20260507144921 | 53 | 211 | 3.0 | 6.0 | 0.00 | 0.00 | 0.00 | 86 | 1019.4 |
| 20260507144449 | 53 | 290 | 2.0 | 5.0 | 0.00 | 0.00 | 0.00 | 87 | 1019.4 |
| 20260507143929 | 53 | 327 | 2.0 | 6.0 | 0.00 | 0.00 | 0.00 | 86 | 1019.4 |
| 20260507143437 | 53 | 45 | 1.0 | 6.0 | 0.00 | 0.00 | 0.00 | 86 | 1019.4 |
| 20260507142921 | 53 | 295 | 2.0 | 8.0 | 0.00 | 0.00 | 0.00 | 86 | 1019.4 |
| 20260507142458 | 53 | 294 | 3.0 | 8.0 | 0.00 | 0.00 | 0.00 | 86 | 1019.4 |
| 20260507141942 | 53 | 313 | 1.0 | 7.0 | 0.00 | 0.00 | 0.00 | 86 | 1019.3 |
| 20260507141446 | 53 | 177 | 1.0 | 13.0 | 0.00 | 0.00 | 0.00 | 86 | 1019.3 |
| 20260507140957 | 53 | 254 | 5.0 | 9.0 | 0.00 | 0.00 | 0.00 | 86 | 1019.3 |
| 20260507140423 | 53 | 240 | 4.0 | 10.0 | 0.00 | 0.00 | 0.00 | 87 | 1019.2 |
| 20260507135930 | 53 | 314 | 4.0 | 10.0 | 0.00 | 0.00 | 0.00 | 87 | 1019.2 |
| 20260507135437 | 53 | 300 | 4.0 | 7.0 | 0.00 | 0.00 | 0.00 | 87 | 1019.1 |
| 20260507134923 | 53 | 262 | 3.0 | 6.0 | 0.00 | 0.00 | 0.00 | 87 | 1019.0 |
| 20260507134431 | 53 | 257 | 2.0 | 6.0 | 0.00 | 0.00 | 0.00 | 87 | 1019.0 |
| 20260507133939 | 53 | 159 | 2.0 | 11.0 | 0.00 | 0.00 | 0.00 | 87 | 1019.0 |
| 20260507133442 | 53 | 294 | 6.0 | 11.0 | 0.00 | 0.00 | 0.00 | 86 | 1019.0 |
| 20260507132929 | 53 | 316 | 4.0 | 5.0 | 0.00 | 0.00 | 0.00 | 86 | 1019.0 |
| 20260507132435 | 53 | 313 | 2.0 | 8.0 | 0.00 | 0.00 | 0.00 | 86 | 1019.0 |
| 20260507131944 | 53 | 347 | 3.0 | 11.0 | 0.00 | 0.00 | 0.00 | 86 | 1018.9 |
| 20260507131419 | 53 | 222 | 5.0 | 11.0 | 0.00 | 0.00 | 0.00 | 86 | 1018.9 |
| 20260507130926 | 53 | 1 | 3.0 | 11.0 | 0.00 | 0.00 | 0.00 | 86 | 1018.8 |
| 20260507130434 | 53 | 275 | 4.0 | 11.0 | 0.00 | 0.00 | 0.00 | 86 | 1018.8 |
| 20260507125939 | 53 | 270 | 4.0 | 11.0 | 0.00 | 0.00 | 0.00 | 86 | 1018.8 |
| 20260507125426 | 53 | 285 | 5.0 | 10.0 | 0.00 | 0.00 | 0.00 | 86 | 1018.7 |
| 20260507124936 | 53 | 289 | 3.0 | 7.0 | 0.00 | 0.00 | 0.00 | 86 | 1018.8 |
| 20260507124456 | 53 | 258 | 2.0 | 7.0 | 0.00 | 0.00 | 0.00 | 86 | 1018.8 |
| 20260507123924 | 53 | 360 | 3.0 | 8.0 | 0.00 | 0.00 | 0.00 | 86 | 1018.8 |
| 20260507123453 | 53 | 282 | 3.0 | 8.0 | 0.00 | 0.00 | 0.00 | 86 | 1018.8 |
| 20260507122921 | 53 | 245 | 4.0 | 12.0 | 0.00 | 0.00 | 0.00 | 86 | 1018.7 |
| 20260507122423 | 53 | 308 | 7.0 | 12.0 | 0.00 | 0.00 | 0.00 | 86 | 1018.8 |
| 20260507121933 | 53 | 289 | 4.0 | 9.0 | 0.00 | 0.00 | 0.00 | 86 | 1018.8 |
| 20260507121422 | 53 | 278 | 5.0 | 9.0 | 0.00 | 0.00 | 0.00 | 86 | 1018.7 |
| 20260507120931 | 53 | 317 | 5.0 | 8.0 | 0.00 | 0.00 | 0.00 | 86 | 1018.7 |
| 20260507120438 | 53 | 268 | 4.0 | 8.0 | 0.00 | 0.00 | 0.00 | 86 | 1018.7 |
| 20260507115924 | 53 | 275 | 4.0 | 8.0 | 0.00 | 0.00 | 0.00 | 86 | 1018.7 |
| 20260507115431 | 53 | 244 | 4.0 | 11.0 | 0.00 | 0.00 | 0.00 | 86 | 1018.8 |
| 20260507114939 | 53 | 290 | 4.0 | 12.0 | 0.00 | 0.00 | 0.00 | 86 | 1018.9 |
| 20260507114421 | 54 | 278 | 7.0 | 12.0 | 0.00 | 0.00 | 0.00 | 86 | 1018.9 |
| 20260507113928 | 54 | 259 | 2.0 | 9.0 | 0.00 | 0.00 | 0.00 | 86 | 1018.9 |
| 20260507113434 | 54 | 359 | 3.0 | 11.0 | 0.00 | 0.00 | 0.00 | 86 | 1018.9 |
| 20260507112949 | 54 | 276 | 5.0 | 11.0 | 0.00 | 0.00 | 0.00 | 86 | 1018.9 |
| 20260507112435 | 54 | 273 | 2.0 | 11.0 | 0.00 | 0.00 | 0.00 | 86 | 1019.0 |
| 20260507111922 | 54 | 275 | 3.0 | 7.0 | 0.00 | 0.00 | 0.00 | 86 | 1019.0 |
| 20260507111453 | 54 | 342 | 2.0 | 6.0 | 0.00 | 0.00 | 0.00 | 86 | 1018.9 |
| 20260507110936 | 54 | 268 | 1.0 | 5.0 | 0.00 | 0.00 | 0.00 | 86 | 1019.0 |
| 20260507110420 | 54 | 88 | 2.0 | 7.0 | 0.00 | 0.00 | 0.00 | 86 | 1018.9 |
| 20260507105926 | 54 | 222 | 3.0 | 7.0 | 0.00 | 0.00 | 0.00 | 86 | 1019.0 |
| 20260507105434 | 54 | 343 | 4.0 | 10.0 | 0.00 | 0.00 | 0.00 | 86 | 1019.0 |
| 20260507104941 | 54 | 1 | 4.0 | 10.0 | 0.00 | 0.00 | 0.00 | 86 | 1018.9 |
| 20260507104449 | 54 | 359 | 4.0 | 10.0 | 0.00 | 0.00 | 0.00 | 86 | 1018.9 |
| 20260507103959 | 54 | 228 | 4.0 | 10.0 | 0.00 | 0.00 | 0.00 | 86 | 1019.0 |
| 20260507103446 | 54 | 222 | 4.0 | 9.0 | 0.00 | 0.00 | 0.00 | 86 | 1019.0 |
| 20260507102930 | 54 | 322 | 2.0 | 11.0 | 0.00 | 0.00 | 0.00 | 86 | 1019.1 |
| 20260507102437 | 54 | 270 | 3.0 | 11.0 | 0.00 | 0.00 | 0.00 | 86 | 1019.1 |
| 20260507101946 | 54 | 316 | 3.0 | 8.0 | 0.00 | 0.00 | 0.00 | 86 | 1019.1 |
| 20260507101453 | 53 | 27 | 3.0 | 8.0 | 0.00 | 0.00 | 0.00 | 86 | 1019.1 |
| 20260507100935 | 53 | 305 | 2.0 | 6.0 | 0.00 | 0.00 | 0.00 | 86 | 1019.0 |
| 20260507100451 | 53 | 107 | 2.0 | 9.0 | 0.00 | 0.00 | 0.00 | 86 | 1019.0 |
| 20260507095936 | 53 | 245 | 5.0 | 9.0 | 0.00 | 0.00 | 0.00 | 86 | 1018.9 |
| 20260507095421 | 54 | 268 | 4.0 | 7.0 | 0.00 | 0.00 | 0.00 | 86 | 1018.9 |
| 20260507094927 | 53 | 285 | 3.0 | 7.0 | 0.00 | 0.00 | 0.00 | 86 | 1018.9 |
| 20260507094434 | 53 | 292 | 1.0 | 11.0 | 0.00 | 0.00 | 0.00 | 86 | 1019.0 |
| 20260507093921 | 53 | 178 | 5.0 | 11.0 | 0.00 | 0.00 | 0.00 | 86 | 1018.9 |
| 20260507093444 | 54 | 272 | 5.0 | 13.0 | 0.00 | 0.00 | 0.00 | 86 | 1018.9 |
| 20260507092959 | 54 | 287 | 4.0 | 13.0 | 0.00 | 0.00 | 0.00 | 86 | 1018.9 |
| 20260507092425 | 54 | 294 | 4.0 | 14.0 | 0.00 | 0.00 | 0.00 | 86 | 1018.9 |
| 20260507091934 | 54 | 273 | 6.0 | 17.0 | 0.00 | 0.00 | 0.00 | 86 | 1018.8 |
| 20260507091418 | 54 | 271 | 7.0 | 17.0 | 0.00 | 0.00 | 0.00 | 86 | 1018.9 |
| 20260507090925 | 54 | 286 | 5.0 | 10.0 | 0.00 | 0.00 | 0.00 | 86 | 1019.0 |
| 20260507090432 | 54 | 224 | 6.0 | 15.0 | 0.00 | 0.00 | 0.00 | 86 | 1018.9 |
| 20260507085936 | 54 | 285 | 8.0 | 15.0 | 0.00 | 0.00 | 0.00 | 86 | 1019.0 |
| 20260507085439 | 54 | 313 | 4.0 | 14.0 | 0.00 | 0.00 | 0.00 | 86 | 1018.9 |
| 20260507084955 | 54 | 264 | 4.0 | 12.0 | 0.00 | 0.00 | 0.00 | 86 | 1019.0 |
| 20260507084437 | 54 | 232 | 5.0 | 10.0 | 0.00 | 0.00 | 0.00 | 86 | 1019.0 |
| 20260507083924 | 54 | 290 | 5.0 | 13.0 | 0.00 | 0.00 | 0.00 | 86 | 1019.2 |
| 20260507083429 | 54 | 275 | 6.0 | 13.0 | 0.00 | 0.00 | 0.00 | 86 | 1019.2 |
| 20260507082933 | 54 | 292 | 4.0 | 13.0 | 0.00 | 0.00 | 0.00 | 86 | 1019.3 |
| 20260507082434 | 54 | 195 | 6.0 | 13.0 | 0.00 | 0.00 | 0.00 | 86 | 1019.4 |
| 20260507081919 | 54 | 313 | 4.0 | 7.0 | 0.00 | 0.00 | 0.00 | 86 | 1019.5 |
| 20260507081428 | 54 | 34 | 1.0 | 5.0 | 0.00 | 0.00 | 0.00 | 86 | 1019.5 |
| 20260507080937 | 54 | 268 | 2.0 | 6.0 | 0.00 | 0.00 | 0.00 | 86 | 1019.5 |
| 20260507080422 | 54 | 360 | 3.0 | 8.0 | 0.00 | 0.00 | 0.00 | 86 | 1019.5 |
| 20260507075949 | 54 | 177 | 1.0 | 8.0 | 0.00 | 0.00 | 0.00 | 86 | 1019.5 |
| 20260507075430 | 54 | 216 | 5.0 | 8.0 | 0.00 | 0.00 | 0.00 | 86 | 1019.4 |
| 20260507074933 | 54 | 292 | 5.0 | 8.0 | 0.00 | 0.00 | 0.00 | 86 | 1019.5 |
| 20260507074420 | 54 | 298 | 4.0 | 8.0 | 0.00 | 0.00 | 0.00 | 86 | 1019.5 |
| 20260507073927 | 54 | 116 | 1.0 | 6.0 | 0.00 | 0.00 | 0.00 | 86 | 1019.5 |
| 20260507073434 | 54 | 301 | 2.0 | 6.0 | 0.00 | 0.00 | 0.00 | 86 | 1019.4 |
| 20260507072922 | 54 | 151 | 3.0 | 7.0 | 0.00 | 0.00 | 0.00 | 86 | 1019.5 |
| 20260507072428 | 54 | 45 | 2.0 | 7.0 | 0.00 | 0.00 | 0.00 | 87 | 1019.5 |
| 20260507071935 | 54 | 237 | 3.0 | 7.0 | 0.00 | 0.00 | 0.00 | 87 | 1019.5 |
| 20260507071420 | 54 | 215 | 2.0 | 9.0 | 0.00 | 0.00 | 0.00 | 87 | 1019.4 |
| 20260507070922 | 54 | 282 | 4.0 | 8.0 | 0.00 | 0.00 | 0.00 | 86 | 1019.4 |
| 20260507070429 | 54 | 278 | 3.0 | 15.0 | 0.00 | 0.00 | 0.00 | 86 | 1019.4 |
| 20260507065938 | 54 | 360 | 2.0 | 15.0 | 0.00 | 0.00 | 0.00 | 86 | 1019.4 |
| 20260507065425 | 54 | 257 | 5.0 | 10.0 | 0.00 | 0.00 | 0.00 | 86 | 1019.4 |
| 20260507064934 | 54 | 138 | 4.0 | 15.0 | 0.00 | 0.00 | 0.00 | 87 | 1019.3 |
| 20260507064420 | 54 | 230 | 6.0 | 19.0 | 0.00 | 0.00 | 0.00 | 87 | 1019.3 |
| 20260507063928 | 54 | 257 | 9.0 | 19.0 | 0.00 | 0.00 | 0.00 | 87 | 1019.3 |
| 20260507063431 | 54 | 247 | 7.0 | 14.0 | 0.00 | 0.00 | 0.00 | 87 | 1019.3 |
| 20260507062937 | 54 | 196 | 6.0 | 20.0 | 0.00 | 0.00 | 0.00 | 87 | 1019.3 |
| 20260507062453 | 54 | 284 | 11.0 | 20.0 | 0.00 | 0.00 | 0.00 | 87 | 1019.1 |
| 20260507061920 | 54 | 296 | 8.0 | 17.0 | 0.00 | 0.00 | 0.00 | 87 | 1019.2 |
| 20260507061445 | 54 | 268 | 10.0 | 20.0 | 0.00 | 0.00 | 0.00 | 87 | 1019.1 |
| 20260507060952 | 54 | 264 | 13.0 | 22.0 | 0.00 | 0.00 | 0.00 | 86 | 1019.2 |
| 20260507060435 | 54 | 257 | 8.0 | 24.0 | 0.00 | 0.00 | 0.00 | 86 | 1019.2 |